| time (UTC) | temp C | wind direction | speed KPH | gust KPH | rain 1hr cm | rain 24hr cm | rain mn cm | humidity % | barometer mb |
| 20260507182122 | 13 | 135 | 6.4 | 29.0 | 0.00 | 0.18 | 0.18 | 58 | 1016.4 |
| 20260507180905 | 14 | 180 | 8.0 | 29.0 | 0.00 | 0.18 | 0.18 | 57 | 1016.1 |
| 20260507175647 | 15 | 90 | 0.0 | 29.0 | 0.00 | 0.18 | 0.18 | 53 | 1015.9 |
| 20260507174430 | 17 | 225 | 3.2 | 29.0 | 0.00 | 0.18 | 0.18 | 48 | 1015.5 |
| 20260507173213 | 16 | 270 | 12.9 | 29.0 | 0.00 | 0.18 | 0.18 | 52 | 1015.6 |
| 20260507171956 | 16 | 292 | 1.6 | 29.0 | 0.00 | 0.18 | 0.18 | 50 | 1015.6 |
| 20260507170739 | 16 | 270 | 3.2 | 29.0 | 0.00 | 0.18 | 0.18 | 51 | 1015.5 |
| 20260507165521 | 16 | 315 | 8.0 | 29.0 | 0.00 | 0.18 | 0.18 | 49 | 1015.5 |
| 20260507164304 | 17 | 292 | 9.7 | 29.0 | 0.00 | 0.18 | 0.18 | 46 | 1015.3 |
| 20260507163047 | 17 | 180 | 14.5 | 29.0 | 0.00 | 0.18 | 0.18 | 43 | 1015.2 |
| 20260507161830 | 18 | 225 | 3.2 | 29.0 | 0.00 | 0.18 | 0.18 | 43 | 1015.0 |
| 20260507160613 | 20 | 315 | 6.4 | 29.0 | 0.00 | 0.18 | 0.18 | 39 | 1014.7 |
| 20260507155356 | 18 | 180 | 4.8 | 29.0 | 0.00 | 0.18 | 0.18 | 44 | 1015.0 |
| 20260507154138 | 19 | 180 | 8.0 | 29.0 | 0.00 | 0.18 | 0.18 | 41 | 1014.7 |
| 20260507152921 | 18 | 225 | 8.0 | 29.0 | 0.00 | 0.18 | 0.18 | 44 | 1014.9 |
| 20260507151704 | 20 | 270 | 4.8 | 29.0 | 0.00 | 0.18 | 0.18 | 41 | 1014.6 |
| 20260507150447 | 20 | 225 | 3.2 | 29.0 | 0.00 | 0.18 | 0.18 | 42 | 1014.8 |
| 20260507145230 | 20 | 225 | 6.4 | 29.0 | 0.00 | 0.18 | 0.18 | 42 | 1014.7 |
| 20260507144013 | 20 | 315 | 16.1 | 29.0 | 0.00 | 0.18 | 0.18 | 42 | 1014.7 |
| 20260507142756 | 20 | 225 | 4.8 | 29.0 | 0.00 | 0.18 | 0.18 | 43 | 1014.8 |
| 20260507141539 | 20 | 45 | 6.4 | 22.5 | 0.00 | 0.18 | 0.18 | 44 | 1014.8 |
| 20260507140321 | 17 | 270 | 8.0 | 22.5 | 0.00 | 0.18 | 0.18 | 47 | 1015.3 |
| 20260507135104 | 18 | 270 | 4.8 | 22.5 | 0.00 | 0.18 | 0.18 | 48 | 1015.4 |
| 20260507133847 | 18 | 315 | 4.8 | 22.5 | 0.00 | 0.18 | 0.18 | 49 | 1015.5 |
| 20260507132630 | 19 | 270 | 11.3 | 22.5 | 0.00 | 0.18 | 0.18 | 47 | 1015.3 |
| 20260507131413 | 19 | 225 | 0.0 | 22.5 | 0.00 | 0.18 | 0.18 | 52 | 1015.3 |
| 20260507130156 | 15 | 270 | 6.4 | 22.5 | 0.00 | 0.18 | 0.18 | 63 | 1016.1 |
| 20260507124938 | 15 | 270 | 9.7 | 22.5 | 0.00 | 0.18 | 0.18 | 62 | 1016.4 |
| 20260507123721 | 16 | 292 | 8.0 | 22.5 | 0.00 | 0.20 | 0.18 | 53 | 1016.3 |
| 20260507122504 | 19 | 225 | 12.9 | 22.5 | 0.00 | 0.30 | 0.18 | 46 | 1015.4 |
| 20260507121247 | 19 | 292 | 11.3 | 22.5 | 0.00 | 0.36 | 0.18 | 48 | 1015.4 |
| 20260507120030 | 16 | 135 | 9.7 | 22.5 | 0.00 | 0.38 | 0.18 | 55 | 1015.9 |
| 20260507114812 | 18 | 225 | 4.8 | 22.5 | 0.00 | 0.43 | 0.18 | 55 | 1015.5 |
| 20260507113555 | 17 | 225 | 1.6 | 22.5 | 0.00 | 0.46 | 0.18 | 53 | 1015.9 |
| 20260507112338 | 16 | 225 | 20.9 | 22.5 | 0.00 | 0.48 | 0.18 | 53 | 1016.0 |
| 20260507111121 | 16 | 45 | 3.2 | 22.5 | 0.00 | 0.51 | 0.18 | 59 | 1016.2 |
| 20260507105903 | 16 | 225 | 0.0 | 22.5 | 0.00 | 0.51 | 0.18 | 61 | 1016.3 |
| 20260507104646 | 15 | 90 | 0.0 | 22.5 | 0.00 | 0.51 | 0.18 | 60 | 1016.4 |
| 20260507103429 | 16 | 270 | 6.4 | 22.5 | 0.00 | 0.51 | 0.18 | 57 | 1016.3 |
| 20260507102212 | 16 | 270 | 6.4 | 22.5 | 0.00 | 0.51 | 0.18 | 59 | 1016.2 |
| 20260507100955 | 16 | 270 | 3.2 | 19.3 | 0.00 | 0.51 | 0.18 | 56 | 1016.4 |
| 20260507095737 | 17 | 180 | 12.9 | 19.3 | 0.00 | 0.51 | 0.18 | 51 | 1016.1 |
| 20260507094520 | 16 | 315 | 6.4 | 17.7 | 0.00 | 0.51 | 0.18 | 56 | 1016.3 |
| 20260507093303 | 16 | 225 | 0.0 | 17.7 | 0.00 | 0.51 | 0.18 | 60 | 1016.5 |
| 20260507092046 | 17 | 90 | 1.6 | 17.7 | 0.00 | 0.56 | 0.18 | 59 | 1016.1 |
| 20260507090829 | 12 | 270 | 1.6 | 17.7 | 0.00 | 0.51 | 0.18 | 74 | 1017.1 |
| 20260507085611 | 13 | 225 | 4.8 | 16.1 | 0.00 | 0.56 | 0.18 | 88 | 1017.0 |
| 20260507084354 | 13 | 225 | 4.8 | 16.1 | 0.00 | 0.56 | 0.18 | 88 | 1017.0 |
| 20260507083137 | 12 | 270 | 1.6 | 16.1 | 0.00 | 0.56 | 0.18 | 88 | 1017.1 |
| 20260507081920 | 11 | 270 | 6.4 | 12.9 | 0.00 | 0.56 | 0.18 | 88 | 1017.4 |
| 20260507080703 | 11 | 315 | 0.0 | 12.9 | 0.00 | 0.56 | 0.18 | 88 | 1017.3 |
| 20260507075446 | 10 | 180 | 0.0 | 12.9 | 0.03 | 0.56 | 0.18 | 88 | 1017.5 |
| 20260507074228 | 10 | 292 | 0.0 | 12.9 | 0.03 | 0.56 | 0.18 | 89 | 1017.7 |
| 20260507073012 | 10 | 315 | 1.6 | 12.9 | 0.03 | 0.56 | 0.18 | 90 | 1017.5 |
| 20260507071754 | 10 | 315 | 3.2 | 12.9 | 0.03 | 0.56 | 0.18 | 91 | 1017.5 |
| 20260507070537 | 10 | 315 | 0.0 | 12.9 | 0.03 | 0.56 | 0.18 | 93 | 1017.5 |
| 20260507065320 | 9 | 270 | 1.6 | 12.9 | 0.00 | 0.51 | 0.15 | 94 | 1017.5 |
| 20260507064102 | 9 | 135 | 0.0 | 12.9 | 0.00 | 0.51 | 0.15 | 95 | 1017.4 |
| 20260507062845 | 8 | 270 | 0.0 | 12.9 | 0.00 | 0.51 | 0.15 | 95 | 1017.3 |
| 20260507061628 | 8 | 135 | 0.0 | 12.9 | 0.00 | 0.51 | 0.15 | 97 | 1017.3 |
| 20260507060411 | 8 | 292 | 0.0 | 12.9 | 0.00 | 0.51 | 0.15 | 97 | 1017.2 |
| 20260507055153 | 8 | 180 | 0.0 | 12.9 | 0.00 | 0.51 | 0.15 | 97 | 1017.1 |
| 20260507053936 | 8 | 135 | 0.0 | 12.9 | 0.00 | 0.51 | 0.15 | 97 | 1017.0 |
| 20260507052719 | 8 | 180 | 0.0 | 12.9 | 0.00 | 0.51 | 0.15 | 98 | 1016.9 |
| 20260507051502 | 8 | 315 | 0.0 | 12.9 | 0.00 | 0.51 | 0.15 | 98 | 1016.8 |
| 20260507050245 | 8 | 315 | 0.0 | 12.9 | 0.00 | 0.51 | 0.15 | 98 | 1016.7 |
| 20260507045027 | 8 | 315 | 0.0 | 12.9 | 0.00 | 0.51 | 0.15 | 99 | 1016.6 |
| 20260507043810 | 7 | 292 | 0.0 | 12.9 | 0.00 | 0.51 | 0.15 | 99 | 1016.5 |
| 20260507042553 | 7 | 270 | 0.0 | 12.9 | 0.00 | 0.51 | 0.15 | 99 | 1016.5 |
| 20260507041336 | 7 | 315 | 0.0 | 12.9 | 0.00 | 0.51 | 0.15 | 99 | 1016.4 |
| 20260507034901 | 7 | 315 | 0.0 | 12.9 | 0.03 | 0.51 | 0.15 | 99 | 1016.3 |
| 20260507033644 | 7 | 315 | 0.0 | 12.9 | 0.05 | 0.51 | 0.15 | 99 | 1016.2 |
| 20260507032427 | 7 | 315 | 0.0 | 12.9 | 0.05 | 0.51 | 0.15 | 99 | 1016.1 |
| 20260507031210 | 7 | 225 | 0.0 | 12.9 | 0.08 | 0.51 | 0.15 | 99 | 1016.1 |
| 20260507025953 | 7 | 315 | 0.0 | 12.9 | 0.08 | 0.48 | 0.13 | 98 | 1016.1 |
| 20260507024736 | 7 | 270 | 0.0 | 12.9 | 0.10 | 0.48 | 0.13 | 98 | 1016.1 |
| 20260507022301 | 7 | 225 | 0.0 | 12.9 | 0.05 | 0.43 | 0.08 | 97 | 1015.9 |
| 20260507021044 | 7 | 135 | 0.0 | 12.9 | 0.05 | 0.43 | 0.08 | 97 | 1015.8 |
| 20260507015827 | 7 | 270 | 0.0 | 12.9 | 0.03 | 0.41 | 0.05 | 96 | 1015.8 |
| 20260507014609 | 7 | 270 | 4.8 | 12.9 | 0.03 | 0.38 | 0.03 | 96 | 1015.7 |
| 20260507013352 | 7 | 315 | 1.6 | 12.9 | 0.03 | 0.38 | 0.03 | 95 | 1015.6 |
| 20260507012135 | 7 | 315 | 3.2 | 12.9 | 0.03 | 0.38 | 0.03 | 95 | 1015.6 |
| 20260507010918 | 7 | 270 | 4.8 | 11.3 | 0.03 | 0.38 | 0.03 | 94 | 1015.5 |
| 20260507005701 | 7 | 292 | 3.2 | 11.3 | 0.00 | 0.36 | 0.00 | 95 | 1015.5 |
| 20260507004443 | 7 | 270 | 3.2 | 11.3 | 0.00 | 0.36 | 0.00 | 95 | 1015.5 |
| 20260507003226 | 7 | 270 | 1.6 | 11.3 | 0.00 | 0.36 | 0.00 | 96 | 1015.5 |
| 20260507002009 | 7 | 292 | 3.2 | 11.3 | 0.00 | 0.36 | 0.00 | 96 | 1015.5 |
| 20260507000752 | 7 | 315 | 3.2 | 11.3 | 0.00 | 0.36 | 0.00 | 96 | 1015.5 |
| 20260506235535 | 6 | 315 | 1.6 | 11.3 | 0.00 | 0.36 | 0.00 | 96 | 1015.7 |
| 20260506234318 | 6 | 315 | 0.0 | 11.3 | 0.00 | 0.36 | 0.00 | 96 | 1015.7 |
| 20260506233100 | 6 | 270 | 3.2 | 11.3 | 0.00 | 0.36 | 0.00 | 96 | 1015.6 |
| 20260506231843 | 6 | 270 | 1.6 | 11.3 | 0.00 | 0.36 | 0.00 | 95 | 1015.6 |
| 20260506230626 | 6 | 315 | 0.0 | 11.3 | 0.00 | 0.36 | 0.00 | 95 | 1015.5 |
| 20260506225409 | 7 | 315 | 3.2 | 11.3 | 0.00 | 0.36 | 0.00 | 95 | 1015.4 |
| 20260506224152 | 7 | 270 | 4.8 | 6.4 | 0.00 | 0.36 | 0.00 | 96 | 1015.4 |
| 20260506222935 | 7 | 180 | 0.0 | 4.8 | 0.00 | 0.36 | 0.00 | 95 | 1015.3 |
| 20260506221717 | 7 | 270 | 0.0 | 4.8 | 0.00 | 0.36 | 0.00 | 94 | 1015.3 |
| 20260506220500 | 7 | 315 | 1.6 | 4.8 | 0.00 | 0.36 | 0.00 | 95 | 1015.2 |
| 20260506215243 | 7 | 180 | 0.0 | 57.9 | 0.00 | 0.36 | 0.36 | 94 | 1015.3 |
| 20260506214026 | 7 | 315 | 0.0 | 57.9 | 0.00 | 0.36 | 0.36 | 93 | 1015.3 |
| 20260506212808 | 7 | 225 | 0.0 | 57.9 | 0.00 | 0.36 | 0.36 | 91 | 1015.2 |
| 20260506211551 | 7 | 225 | 0.0 | 57.9 | 0.00 | 0.36 | 0.36 | 91 | 1015.0 |
| 20260506210334 | 7 | 292 | 0.0 | 57.9 | 0.00 | 0.36 | 0.36 | 92 | 1014.9 |
| 20260506205117 | 7 | 270 | 0.0 | 57.9 | 0.00 | 0.36 | 0.36 | 93 | 1014.9 |
| 20260506203900 | 7 | 315 | 0.0 | 57.9 | 0.00 | 0.36 | 0.36 | 94 | 1014.9 |
| 20260506202642 | 7 | 315 | 0.0 | 57.9 | 0.00 | 0.36 | 0.36 | 93 | 1014.8 |
| 20260506201425 | 7 | 315 | 0.0 | 57.9 | 0.00 | 0.36 | 0.36 | 90 | 1014.6 |
| 20260506200208 | 8 | 315 | 1.6 | 57.9 | 0.00 | 0.36 | 0.36 | 91 | 1014.2 |
| 20260506194951 | 8 | 315 | 0.0 | 57.9 | 0.00 | 0.36 | 0.36 | 88 | 1014.0 |
| 20260506193734 | 8 | 135 | 0.0 | 57.9 | 0.00 | 0.36 | 0.36 | 87 | 1013.8 |
| 20260506192516 | 8 | 315 | 0.0 | 57.9 | 0.00 | 0.36 | 0.36 | 85 | 1013.6 |
| 20260506191259 | 9 | 270 | 0.0 | 57.9 | 0.00 | 0.36 | 0.36 | 83 | 1013.5 |
| 20260506190042 | 9 | 90 | 0.0 | 57.9 | 0.00 | 0.36 | 0.36 | 79 | 1013.2 |
| 20260506184825 | 10 | 22 | 0.0 | 57.9 | 0.00 | 0.36 | 0.36 | 77 | 1013.1 |
| 20260506183608 | 10 | 315 | 1.6 | 57.9 | 0.00 | 0.36 | 0.36 | 76 | 1012.9 |
| 20260506182350 | 10 | 315 | 6.4 | 57.9 | 0.00 | 0.36 | 0.36 | 75 | 1012.7 |